Location: Alumbaugh
(37.5976°N, 83.9299°W)
Time: 01:12:47
(UTC+00:00)

Oscar 11 - Pass Details

Date: 30 March 2023
Orbit: 609 x 618 km, 97.7° (Epoch: 29 May)

Event Time Altitude Azimuth Distance (km) Brightness Sun altitude
Rises 10:25:31 0° 4° (N) 2,878 10.7 -12.3°
Reaches altitude 10° 10:27:46 10° 359° (N) 1,970 9.8 -11.9°
Maximum altitude 10:31:51 45° 287° (WNW) 836 7.4 -11.1°
Drops below altitude 10° 10:35:55 10° 214° (SW) 1,961 9.2 -10.3°
Enters shadow 10:37:36 - 209° (SSW) 2,639 9.9 -10.0°
